M I D A S
Marine Information and Data Acquisition System
Tripno 1890 of the Zeeleeuw from 2010-05-31 07:21:00 to 2010-05-31 11:38:17
Back to CruiseResearch ActivitiesStationsMapUnderway DataData graphs

EquipmentUnitsComments
TimeDGPSUTC
LatitudeDGPSDM.mWGS84
LongitudeDGPSDM.mWGS84
SpeedMeteo Stationm/sRelative wind speed
DirectionMeteo StationdegRelative wind direction
TemperatureMeteo Stationdeg CelciusAir temperature
PressureMeteo StationPaAtmospheric pressure
HumidityMeteo Station%Relative humidity
Missing or incorrect values are displayed as -999
Metereological data collected by the RV Zeeleeuw from 2010-05-31 06:51:01 to 2010-05-31 11:47:31
                                                                                    Next 1000 lines
Time Latitude Longitude Speed Direction Temperature Pressure Humidity
2010-05-31 06:51:12 51°13.66 2°55.96 6.8 75 12.1 101460 41
2010-05-31 06:51:16 51°13.661 2°55.959 5.4 25 12 101460 43
2010-05-31 06:51:21 51°13.66 2°55.959 3.9 76 12 101460 43
2010-05-31 06:51:27 51°13.661 2°55.958 6 20 12.1 101470 42
2010-05-31 06:51:32 51°13.661 2°55.958 5.4 80 12.1 101470 42
2010-05-31 06:51:36 51°13.661 2°55.958 4.4 14 12.1 101460 40
2010-05-31 06:51:41 51°13.661 2°55.958 4.6 279 12.1 101460 40
2010-05-31 06:51:47 51°13.661 2°55.958 6.3 25 12.1 101460 43
2010-05-31 06:51:52 51°13.661 2°55.958 4.5 77 12.1 101460 43
2010-05-31 06:51:56 51°13.661 2°55.959 4.6 26 12.1 101460 44
2010-05-31 06:52:02 51°13.661 2°55.959 4.6 77 12.1 101460 44
2010-05-31 06:52:06 51°13.661 2°55.959 5.9 27 12.1 101460 42
2010-05-31 06:52:12 51°13.661 2°55.959 4.6 75 12.1 101460 42
2010-05-31 06:52:16 51°13.661 2°55.958 5.8 22 12.1 101460 40
2010-05-31 06:52:22 51°13.661 2°55.956 5.4 82 12.1 101460 40
2010-05-31 06:52:27 51°13.662 2°55.953 7.1 22 12.1 101460 41
2010-05-31 06:52:31 51°13.662 2°55.95 8.2 79 12.1 101460 41
2010-05-31 06:52:37 51°13.664 2°55.944 8 26 12.1 101460 40
2010-05-31 06:52:43 51°13.665 2°55.937 7.2 77 12.1 101460 40
2010-05-31 06:52:48 51°13.667 2°55.929 6.6 20 12.1 101460 41
2010-05-31 06:52:54 51°13.669 2°55.92 6.9 78 12.1 101460 41
2010-05-31 06:52:59 51°13.671 2°55.911 5.5 22 12.1 101460 42
2010-05-31 06:53:05 51°13.673 2°55.9 7.2 77 12.1 101460 42
2010-05-31 06:53:10 51°13.675 2°55.891 8.5 21 12.1 101470 40
2010-05-31 06:53:15 51°13.677 2°55.882 9 80 12.1 101470 40
2010-05-31 06:53:20 51°13.68 2°55.873 8.2 24 12.1 101480 42
2010-05-31 06:53:25 51°13.682 2°55.863 7.8 78 12.1 101480 42
2010-05-31 06:53:30 51°13.685 2°55.854 7.8 28 12 101470 41
2010-05-31 06:53:35 51°13.687 2°55.844 7.3 75 12 101470 41
2010-05-31 06:53:40 51°13.691 2°55.833 8 21 12 101480 40
2010-05-31 06:53:45 51°13.694 2°55.823 5.2 75 12 101480 40
2010-05-31 06:53:50 51°13.698 2°55.813 8.4 26 12 101480 41
2010-05-31 06:53:55 51°13.702 2°55.803 7.7 76 12 101480 41
2010-05-31 06:54:00 51°13.706 2°55.793 8.1 22 12 101470 42
2010-05-31 06:54:05 51°13.71 2°55.782 8.6 76 12 101470 42
2010-05-31 06:54:10 51°13.715 2°55.773 9.1 27 12 101460 41
2010-05-31 06:54:15 51°13.719 2°55.763 8.3 74 12 101460 41
2010-05-31 06:54:20 51°13.724 2°55.753 8.1 22 12.1 101470 42
2010-05-31 06:54:25 51°13.728 2°55.744 8.9 76 12.1 101470 42
2010-05-31 06:54:30 51°13.733 2°55.735 9.3 27 12.1 101470 42
2010-05-31 06:54:35 51°13.738 2°55.726 9.3 75 12.1 101470 42
2010-05-31 06:54:40 51°13.742 2°55.718 9.3 22 12.1 101470 41
2010-05-31 06:54:45 51°13.747 2°55.71 10 78 12.1 101470 41
2010-05-31 06:54:50 51°13.752 2°55.703 5.3 27 12.1 101470 41
2010-05-31 06:54:55 51°13.757 2°55.696 6.3 78 12.1 101470 41
2010-05-31 06:55:00 51°13.763 2°55.689 5 26 12 101470 40
2010-05-31 06:55:05 51°13.769 2°55.683 7.8 81 12 101470 40
2010-05-31 06:55:10 51°13.775 2°55.678 7.5 27 12 101470 41
2010-05-31 06:55:15 51°13.779 2°55.675 7.5 80 12 101470 41
2010-05-31 06:55:20 51°13.782 2°55.672 7.9 21 12.2 101470 41
2010-05-31 06:55:25 51°13.785 2°55.67 7.8 81 12.2 101470 41
2010-05-31 06:55:30 51°13.788 2°55.668 8.9 21 12.3 101470 43
2010-05-31 06:55:35 51°13.792 2°55.666 8.4 76 12.3 101470 43
2010-05-31 06:55:40 51°13.796 2°55.664 9.7 22 12.2 101460 41
2010-05-31 06:55:44 51°13.8 2°55.662 8.9 82 12.2 101460 41
2010-05-31 06:55:50 51°13.806 2°55.659 9.3 26 12.1 101460 42
2010-05-31 06:55:55 51°13.811 2°55.656 9 76 12.1 101460 42
2010-05-31 06:56:00 51°13.817 2°55.654 9.2 26 12.1 101460 40
2010-05-31 06:56:05 51°13.823 2°55.652 9.7 78 12.1 101460 40
2010-05-31 06:56:10 51°13.829 2°55.65 8.3 27 12.1 101460 41
2010-05-31 06:56:15 51°13.836 2°55.647 10.1 80 12.1 101460 41
2010-05-31 06:56:20 51°13.843 2°55.645 7.7 24 12.1 101450 41
2010-05-31 06:56:25 51°13.85 2°55.642 8.3 77 12.1 101450 41
2010-05-31 06:56:30 51°13.857 2°55.639 8.8 23 12.1 101450 41
2010-05-31 06:56:35 51°13.863 2°55.636 6.8 77 12.1 101450 41
2010-05-31 06:56:40 51°13.87 2°55.633 6.7 25 12.1 101450 40
2010-05-31 06:56:45 51°13.876 2°55.63 4.3 76 12.1 101450 40
2010-05-31 06:56:50 51°13.882 2°55.628 6.7 24 12.1 101460 41
2010-05-31 06:56:55 51°13.888 2°55.625 6.7 80 12.1 101460 41
2010-05-31 06:57:00 51°13.894 2°55.623 7.2 22 12.2 101460 43
2010-05-31 06:57:05 51°13.9 2°55.621 7 78 12.2 101460 43
2010-05-31 06:57:10 51°13.905 2°55.618 7.6 26 12.2 101460 40
2010-05-31 06:57:15 51°13.91 2°55.617 9 80 12.2 101460 40
2010-05-31 06:57:20 51°13.915 2°55.615 8.5 21 12.2 101470 40
2010-05-31 06:57:25 51°13.92 2°55.614 9.3 77 12.2 101470 40
2010-05-31 06:57:30 51°13.925 2°55.613 8.8 28 12.2 101470 41
2010-05-31 06:57:35 51°13.93 2°55.613 8.2 75 12.2 101470 41
2010-05-31 06:57:40 51°13.935 2°55.613 8.1 25 12.2 101460 42
2010-05-31 06:57:45 51°13.939 2°55.614 8.5 78 12.2 101460 42
2010-05-31 06:57:50 51°13.943 2°55.615 8.8 22 12.2 101460 39
2010-05-31 06:57:55 51°13.947 2°55.616 8.8 75 12.2 101460 39
2010-05-31 06:58:00 51°13.95 2°55.618 8.5 19 12.2 101450 41
2010-05-31 06:58:05 51°13.954 2°55.619 9.7 83 12.2 101450 41
2010-05-31 06:58:10 51°13.957 2°55.621 9.2 26 12.2 101460 41
2010-05-31 06:58:15 51°13.961 2°55.623 9.6 81 12.2 101460 41
2010-05-31 06:58:19 51°13.963 2°55.624 7.5 23 12.2 101450 39
2010-05-31 06:58:24 51°13.966 2°55.626 7.5 81 12.2 101450 39
2010-05-31 06:58:29 51°13.969 2°55.628 7.8 43 12.2 101450 41
2010-05-31 06:58:34 51°13.972 2°55.63 7.7 44 12.2 101450 41
2010-05-31 06:58:39 51°13.974 2°55.632 8.8 21 12.1 101450 40
2010-05-31 06:58:43 51°13.974 2°55.632 8.5 43 12.1 101450 40
2010-05-31 06:58:48 51°13.973 2°55.633 8 39 12.1 101460 40
2010-05-31 06:58:53 51°13.971 2°55.633 5.6 42 12.1 101460 40
2010-05-31 06:58:58 51°13.969 2°55.632 7.6 35 12.1 101460 41
2010-05-31 06:59:03 51°13.966 2°55.631 6.8 32 12.1 101460 41
2010-05-31 06:59:07 51°13.964 2°55.629 7.9 31 12.1 101460 40
2010-05-31 06:59:12 51°13.961 2°55.627 7 27 12.1 101460 40
2010-05-31 06:59:17 51°13.959 2°55.624 7.6 27 12.1 101460 42
2010-05-31 06:59:22 51°13.956 2°55.621 6.7 21 12.1 101460 42
2010-05-31 06:59:26 51°13.954 2°55.619 7.2 23 12.1 101460 42
2010-05-31 06:59:32 51°13.952 2°55.616 8.1 24 12.1 101460 42
2010-05-31 06:59:36 51°13.951 2°55.615 7.6 22 12.1 101460 40
2010-05-31 06:59:42 51°13.95 2°55.614 7.9 21 12.1 101460 40
2010-05-31 06:59:47 51°13.949 2°55.615 8.7 19 12.1 101450 40
2010-05-31 06:59:52 51°13.949 2°55.617 9.6 21 12.1 101450 40
2010-05-31 06:59:56 51°13.949 2°55.62 8.9 20 12.1 101460 41
2010-05-31 07:00:02 51°13.949 2°55.625 7.5 20 12.1 101460 41
2010-05-31 07:00:07 51°13.949 2°55.629 9.4 21 12.1 101460 40
2010-05-31 07:00:12 51°13.95 2°55.633 8.8 21 12.1 101460 40
2010-05-31 07:00:18 51°13.949 2°55.636 9 16 12.1 101460 41
2010-05-31 07:00:23 51°13.948 2°55.636 8.4 16 12.1 101460 41
2010-05-31 07:00:29 51°13.947 2°55.634 9.9 9 12.1 101460 39
2010-05-31 07:00:35 51°13.946 2°55.628 8.2 6 12.1 101460 39
2010-05-31 07:00:40 51°13.945 2°55.623 9 2 12.1 101450 40
2010-05-31 07:00:45 51°13.945 2°55.616 9.8 360 12.1 101450 40
2010-05-31 07:00:50 51°13.946 2°55.609 11.6 354 12 101460 42
2010-05-31 07:00:55 51°13.947 2°55.602 8.8 353 12 101460 42
2010-05-31 07:01:00 51°13.949 2°55.595 9.7 348 12 101450 40
2010-05-31 07:01:04 51°13.952 2°55.589 10.6 281 12 101450 40
2010-05-31 07:01:09 51°13.955 2°55.583 10.1 344 12 101450 41
2010-05-31 07:01:14 51°13.959 2°55.576 9.2 278 12 101450 41
2010-05-31 07:01:19 51°13.963 2°55.57 9.1 337 12 101450 40
2010-05-31 07:01:24 51°13.968 2°55.563 9.8 281 12 101450 40
2010-05-31 07:01:28 51°13.973 2°55.558 11.2 329 12 101450 41
2010-05-31 07:01:33 51°13.98 2°55.552 12.8 281 12 101450 41
2010-05-31 07:01:38 51°13.987 2°55.545 13 333 12 101450 40
2010-05-31 07:01:43 51°13.994 2°55.537 13 279 12 101450 40
2010-05-31 07:01:47 51°14 2°55.531 12 332 12 101450 41
2010-05-31 07:01:52 51°14.008 2°55.522 12.6 285 12 101450 41
2010-05-31 07:01:57 51°14.017 2°55.514 12.4 330 12 101450 40
2010-05-31 07:02:02 51°14.026 2°55.506 13.4 283 12 101450 40
2010-05-31 07:02:07 51°14.036 2°55.497 13.5 331 12 101440 41
2010-05-31 07:02:11 51°14.044 2°55.49 14.6 283 12 101440 41
2010-05-31 07:02:16 51°14.054 2°55.482 13 331 12 101450 40
2010-05-31 07:02:21 51°14.064 2°55.473 12.9 277 12 101450 40
2010-05-31 07:02:27 51°14.078 2°55.463 13.5 333 12.1 101440 41
2010-05-31 07:02:32 51°14.089 2°55.454 12.1 279 12.1 101440 41
2010-05-31 07:02:36 51°14.098 2°55.445 13.5 331 12 101430 40
2010-05-31 07:02:41 51°14.109 2°55.436 14.2 281 12 101430 40
2010-05-31 07:02:47 51°14.123 2°55.423 14.6 332 12 101440 41
2010-05-31 07:02:52 51°14.135 2°55.413 13.7 283 12 101440 41
2010-05-31 07:02:56 51°14.145 2°55.405 13.7 333 12 101430 41
2010-05-31 07:03:01 51°14.157 2°55.394 12.7 283 12 101430 41
2010-05-31 07:03:06 51°14.168 2°55.382 12.2 332 12 101450 40
2010-05-31 07:03:12 51°14.183 2°55.368 12.2 279 12 101450 40
2010-05-31 07:03:16 51°14.192 2°55.359 12 335 12 101430 41
2010-05-31 07:03:22 51°14.207 2°55.343 12.7 281 12 101430 41
2010-05-31 07:03:27 51°14.219 2°55.33 12.8 336 12 101440 41
2010-05-31 07:03:31 51°14.228 2°55.32 12.1 282 12 101440 41
2010-05-31 07:03:37 51°14.243 2°55.304 12.7 334 12.1 101440 41
2010-05-31 07:03:42 51°14.255 2°55.291 14.2 287 12.1 101440 41
2010-05-31 07:03:47 51°14.266 2°55.277 12.3 336 12.1 101450 41
2010-05-31 07:03:52 51°14.278 2°55.263 12.7 285 12.1 101450 41
2010-05-31 07:03:56 51°14.288 2°55.252 14.4 331 12.1 101440 42
2010-05-31 07:04:02 51°14.304 2°55.237 16.7 279 12.1 101440 42
2010-05-31 07:04:07 51°14.316 2°55.223 13.6 334 12.1 101440 40
2010-05-31 07:04:11 51°14.326 2°55.212 13.8 278 12.1 101440 40
2010-05-31 07:04:16 51°14.34 2°55.2 13.5 334 12.1 101450 41
2010-05-31 07:04:22 51°14.355 2°55.183 14.7 279 12.1 101450 41
2010-05-31 07:04:27 51°14.368 2°55.17 15 334 12.1 101450 41
2010-05-31 07:04:32 51°14.381 2°55.156 13.3 285 12.1 101450 41
2010-05-31 07:04:36 51°14.392 2°55.145 14.1 333 12.1 101430 41
2010-05-31 07:04:41 51°14.405 2°55.132 12.3 277 12.1 101430 41
2010-05-31 07:04:46 51°14.419 2°55.119 13.9 335 12.1 101450 40
2010-05-31 07:04:52 51°14.435 2°55.101 12.7 278 12.1 101450 40
2010-05-31 07:04:56 51°14.445 2°55.09 14.9 333 12.1 101440 41
2010-05-31 07:05:02 51°14.462 2°55.074 13.8 278 12.1 101440 41
2010-05-31 07:05:06 51°14.473 2°55.062 13.7 333 12.1 101450 41
2010-05-31 07:05:12 51°14.489 2°55.045 13.3 281 12.1 101450 41
2010-05-31 07:05:16 51°14.499 2°55.033 14.4 334 12.1 101450 41
2010-05-31 07:05:21 51°14.512 2°55.019 15.3 282 12.1 101450 41
2010-05-31 07:05:26 51°14.524 2°55.002 13 337 12.1 101430 42
2010-05-31 07:05:32 51°14.538 2°54.978 13.7 281 12.1 101430 42
2010-05-31 07:05:36 51°14.546 2°54.962 13.4 332 12.1 101450 40
2010-05-31 07:05:42 51°14.56 2°54.937 14.5 281 12.1 101450 40
2010-05-31 07:05:46 51°14.57 2°54.921 16.3 333 12 101430 39
2010-05-31 07:05:51 51°14.582 2°54.904 14.8 285 12 101430 39
2010-05-31 07:05:56 51°14.595 2°54.884 14.5 336 12 101420 40
2010-05-31 07:06:02 51°14.608 2°54.859 13.6 282 12 101420 40
2010-05-31 07:06:07 51°14.618 2°54.835 12.9 340 12 101450 40
2010-05-31 07:06:11 51°14.624 2°54.814 13.9 283 12 101450 40
2010-05-31 07:06:17 51°14.633 2°54.782 13.7 346 12 101440 40
2010-05-31 07:06:22 51°14.638 2°54.753 15.1 348 12 101440 40
2010-05-31 07:06:27 51°14.643 2°54.725 13.1 349 12 101450 41
2010-05-31 07:06:32 51°14.645 2°54.695 13.7 278 12 101450 41
2010-05-31 07:06:36 51°14.647 2°54.67 13.2 347 12 101440 41
2010-05-31 07:06:41 51°14.647 2°54.639 12.7 352 12 101440 41
2010-05-31 07:06:46 51°14.646 2°54.609 14 354 12 101420 41
2010-05-31 07:06:51 51°14.642 2°54.578 13.3 358 12 101420 41
2010-05-31 07:06:56 51°14.637 2°54.549 13.3 359 12 101430 40
2010-05-31 07:07:02 51°14.628 2°54.514 9.1 3 12 101430 40
2010-05-31 07:07:07 51°14.62 2°54.486 9.8 1 12 101430 41
2010-05-31 07:07:11 51°14.611 2°54.465 8.4 6 12 101430 41
2010-05-31 07:07:16 51°14.6 2°54.44 9.3 7 12 101440 41
2010-05-31 07:07:21 51°14.586 2°54.417 9.1 8 12 101440 41
2010-05-31 07:07:27 51°14.57 2°54.389 8 2 12 101440 42
2010-05-31 07:07:32 51°14.556 2°54.365 10.4 8 12 101440 42
2010-05-31 07:07:36 51°14.546 2°54.345 7.6 7 12 101460 42
2010-05-31 07:07:41 51°14.532 2°54.323 8.9 3 12 101460 42
2010-05-31 07:07:47 51°14.517 2°54.291 8.2 6 12 101460 41
2010-05-31 07:07:51 51°14.508 2°54.271 8.1 3 12 101460 41
2010-05-31 07:07:56 51°14.494 2°54.247 9.8 7 12 101460 42
2010-05-31 07:08:02 51°14.481 2°54.214 9.4 7 12 101460 42
2010-05-31 07:08:06 51°14.469 2°54.196 9.7 7 12 101460 41
2010-05-31 07:08:11 51°14.458 2°54.169 10.5 8 12 101460 41
2010-05-31 07:08:16 51°14.447 2°54.143 7.7 5 12 101460 41
2010-05-31 07:08:22 51°14.431 2°54.113 8.3 6 12 101460 41
2010-05-31 07:08:26 51°14.423 2°54.09 6.3 5 12 101460 39
2010-05-31 07:08:32 51°14.407 2°54.06 8.6 7 12 101460 39
2010-05-31 07:08:36 51°14.399 2°54.038 8.3 360 12 101460 42
2010-05-31 07:08:42 51°14.384 2°54.007 10.7 2 12 101460 42
2010-05-31 07:08:47 51°14.372 2°53.98 8.3 4 12 101460 40
2010-05-31 07:08:52 51°14.36 2°53.954 8.9 5 12 101460 40
2010-05-31 07:08:56 51°14.35 2°53.933 10.8 4 12 101470 39
2010-05-31 07:09:02 51°14.336 2°53.901 9.9 2 12 101470 39
2010-05-31 07:09:07 51°14.324 2°53.875 8.7 6 12 101470 42
2010-05-31 07:09:11 51°14.315 2°53.854 10 7 12 101470 42
2010-05-31 07:09:16 51°14.302 2°53.828 8.4 4 12 101460 40
2010-05-31 07:09:21 51°14.291 2°53.801 10.2 5 12 101460 40
2010-05-31 07:09:27 51°14.277 2°53.769 6.8 6 12 101460 41
2010-05-31 07:09:32 51°14.265 2°53.743 9.9 6 12 101460 41
2010-05-31 07:09:36 51°14.255 2°53.721 9.5 359 12 101450 42
2010-05-31 07:09:42 51°14.241 2°53.689 8.4 3 12 101450 42
2010-05-31 07:09:46 51°14.232 2°53.667 8.8 2 12 101460 41
2010-05-31 07:09:51 51°14.219 2°53.642 9.1 6 12 101460 41
2010-05-31 07:09:56 51°14.209 2°53.614 8.9 7 12 101470 40
2010-05-31 07:10:02 51°14.194 2°53.583 8.4 6 12 101470 40
2010-05-31 07:10:06 51°14.185 2°53.562 9 7 12 101460 41
2010-05-31 07:10:11 51°14.173 2°53.534 8 2 12 101460 41
2010-05-31 07:10:16 51°14.161 2°53.508 8.9 6 12 101470 41
2010-05-31 07:10:22 51°14.148 2°53.475 7 3 12 101470 41
2010-05-31 07:10:26 51°14.138 2°53.454 9.7 4 12 101450 40
2010-05-31 07:10:32 51°14.123 2°53.423 8.7 4 12 101450 40
2010-05-31 07:10:36 51°14.114 2°53.401 9.5 5 12 101470 41
2010-05-31 07:10:42 51°14.099 2°53.37 7.8 3 12 101470 41
2010-05-31 07:10:47 51°14.086 2°53.344 9.7 1 12 101470 41
2010-05-31 07:10:52 51°14.075 2°53.318 9.6 1 12 101470 41
2010-05-31 07:10:56 51°14.064 2°53.297 8.3 6 12 101460 42
2010-05-31 07:11:02 51°14.051 2°53.264 8.5 6 12 101460 42
2010-05-31 07:11:07 51°14.037 2°53.241 8.6 6 12 101470 40
2010-05-31 07:11:11 51°14.028 2°53.218 9.3 6 12 101470 40
2010-05-31 07:11:16 51°14.015 2°53.192 7.8 5 12 101450 40
2010-05-31 07:11:22 51°14.001 2°53.16 8.8 4 12 101450 40
2010-05-31 07:11:27 51°13.988 2°53.135 8.6 2 12 101460 41
2010-05-31 07:11:31 51°13.978 2°53.114 8.3 2 12 101460 41
2010-05-31 07:11:36 51°13.965 2°53.088 10 5 12 101470 39
2010-05-31 07:11:42 51°13.951 2°53.057 8.4 1 12 101470 39
2010-05-31 07:11:47 51°13.938 2°53.031 10.4 3 12 101470 41
2010-05-31 07:11:51 51°13.929 2°53.009 10.3 4 12 101470 41
2010-05-31 07:11:56 51°13.916 2°52.982 10.6 360 12 101470 40
2010-05-31 07:12:02 51°13.902 2°52.95 9 4 12 101470 40
2010-05-31 07:12:06 51°13.891 2°52.931 7.8 3 12 101460 40
2010-05-31 07:12:12 51°13.878 2°52.898 8.7 6 12 101460 40
2010-05-31 07:12:16 51°13.868 2°52.878 9.7 -999 12 101460 40
2010-05-31 07:12:22 51°13.854 2°52.846 9.9 7 12 101460 40
2010-05-31 07:12:26 51°13.845 2°52.824 8 4 12 101460 41
2010-05-31 07:12:32 51°13.83 2°52.794 7.1 6 12 101460 41
2010-05-31 07:12:36 51°13.821 2°52.772 7.9 2 12 101460 40
2010-05-31 07:12:42 51°13.806 2°52.742 8.1 3 12 101460 40
2010-05-31 07:12:47 51°13.795 2°52.715 8.3 4 12 101460 42
2010-05-31 07:12:51 51°13.785 2°52.694 7.9 3 12 101460 42
2010-05-31 07:12:57 51°13.771 2°52.663 6.9 3 12 101460 42
2010-05-31 07:13:02 51°13.759 2°52.638 7.8 2 12 101460 42
2010-05-31 07:13:07 51°13.746 2°52.612 8.6 2 12 101470 40
2010-05-31 07:13:11 51°13.737 2°52.591 8 4 12 101470 40
2010-05-31 07:13:16 51°13.725 2°52.566 7.3 3 12 101470 40
2010-05-31 07:13:22 51°13.711 2°52.534 9.5 1 12 101470 40
2010-05-31 07:13:27 51°13.697 2°52.509 8.9 8 12 101470 40
2010-05-31 07:13:31 51°13.689 2°52.487 9.2 6 12 101470 40
2010-05-31 07:13:36 51°13.677 2°52.463 9.1 360 12 101460 40
2010-05-31 07:13:42 51°13.662 2°52.431 9.1 2 12 101460 40
2010-05-31 07:13:47 51°13.652 2°52.405 9.2 3 12 101470 40
2010-05-31 07:13:51 51°13.64 2°52.387 10 1 12 101470 40
2010-05-31 07:13:56 51°13.629 2°52.359 10.4 2 12 101470 40
2010-05-31 07:14:02 51°13.615 2°52.33 8.4 4 12 101470 40
2010-05-31 07:14:06 51°13.605 2°52.31 11.5 3 12 101460 40
2010-05-31 07:14:11 51°13.593 2°52.283 10.5 1 12 101460 40
2010-05-31 07:14:16 51°13.581 2°52.258 9.2 4 12 101460 39
2010-05-31 07:14:22 51°13.567 2°52.228 8.6 4 12 101460 39
2010-05-31 07:14:26 51°13.557 2°52.208 10 6 12 101470 40
2010-05-31 07:14:31 51°13.546 2°52.182 9.3 3 12 101470 40
2010-05-31 07:14:36 51°13.534 2°52.157 9 2 12 101460 41
2010-05-31 07:14:42 51°13.519 2°52.127 9 5 12 101460 41
2010-05-31 07:14:46 51°13.51 2°52.105 9.1 1 11.9 101470 41
2010-05-31 07:14:51 51°13.497 2°52.081 7.6 4 11.9 101470 41
2010-05-31 07:14:56 51°13.486 2°52.054 8.1 1 12 101460 40
2010-05-31 07:15:02 51°13.471 2°52.026 9.5 1 12 101460 40
2010-05-31 07:15:07 51°13.461 2°51.998 10 3 12 101460 41
2010-05-31 07:15:11 51°13.45 2°51.979 10.1 359 12 101460 41
2010-05-31 07:15:16 51°13.438 2°51.953 10.6 2 12 101480 42
2010-05-31 07:15:22 51°13.423 2°51.924 9.4 2 12 101480 42
2010-05-31 07:15:27 51°13.411 2°51.899 10 5 12 101470 41
2010-05-31 07:15:31 51°13.402 2°51.878 8.8 1 12 101470 41
2010-05-31 07:15:36 51°13.388 2°51.855 9.5 -999 12 101470 42
2010-05-31 07:15:42 51°13.375 2°51.824 9.5 4 12 101470 42
2010-05-31 07:15:47 51°13.361 2°51.801 8.9 3 12 101470 41
2010-05-31 07:15:51 51°13.351 2°51.781 9 -999 12 101470 41
2010-05-31 07:15:56 51°13.34 2°51.757 8.5 6 12 101470 42
2010-05-31 07:16:01 51°13.329 2°51.735 6.9 8 12 101470 42
2010-05-31 07:16:07 51°13.316 2°51.707 9.1 6 12 101480 41
2010-05-31 07:16:12 51°13.308 2°51.684 9.1 6 12 101480 41
2010-05-31 07:16:16 51°13.301 2°51.667 9.3 1 12 101470 42
2010-05-31 07:16:22 51°13.293 2°51.641 7.8 2 12 101470 42
2010-05-31 07:16:27 51°13.287 2°51.62 9.2 360 12 101490 40
2010-05-31 07:16:32 51°13.281 2°51.599 9.1 4 12 101490 40
2010-05-31 07:16:36 51°13.277 2°51.583 8.6 4 12 101480 41
2010-05-31 07:16:41 51°13.271 2°51.564 9.4 1 12 101480 41
2010-05-31 07:16:47 51°13.267 2°51.541 9.2 356 12 101480 40
2010-05-31 07:16:51 51°13.266 2°51.526 9.9 355 12 101480 40
2010-05-31 07:16:56 51°13.266 2°51.51 9.3 350 12 101480 39
2010-05-31 07:17:02 51°13.266 2°51.492 10.7 349 12 101480 39
2010-05-31 07:17:06 51°13.267 2°51.481 9 349 12 101480 40
2010-05-31 07:17:11 51°13.268 2°51.468 9.3 278 12 101480 40
2010-05-31 07:17:16 51°13.269 2°51.457 9 346 12 101480 41
2010-05-31 07:17:22 51°13.272 2°51.444 8.6 280 12 101480 41
2010-05-31 07:17:26 51°13.273 2°51.437 10 340 12 101470 40
2010-05-31 07:17:31 51°13.276 2°51.428 9.3 279 12 101470 40
2010-05-31 07:17:36 51°13.278 2°51.42 8.4 335 12 101480 42
2010-05-31 07:17:42 51°13.281 2°51.411 8.3 285 12 101480 42
2010-05-31 07:17:47 51°13.284 2°51.405 8.7 332 12 101490 42
2010-05-31 07:17:51 51°13.287 2°51.4 9.1 278 12 101490 42
2010-05-31 07:17:56 51°13.29 2°51.395 10.7 326 12 101490 42
2010-05-31 07:18:01 51°13.293 2°51.39 9.7 286 12 101490 42
2010-05-31 07:18:07 51°13.298 2°51.386 10.4 321 12 101490 40
2010-05-31 07:18:12 51°13.301 2°51.383 9.4 281 12 101490 40
2010-05-31 07:18:16 51°13.304 2°51.381 9.2 317 12 101490 40
2010-05-31 07:18:22 51°13.308 2°51.379 8.3 277 12 101490 40
2010-05-31 07:18:27 51°13.311 2°51.378 8.6 315 12 101480 40
2010-05-31 07:18:31 51°13.314 2°51.377 8.5 278 12 101480 40
2010-05-31 07:18:36 51°13.317 2°51.377 8.1 24 11.9 101480 40
2010-05-31 07:18:42 51°13.321 2°51.378 8.4 279 11.9 101480 40
2010-05-31 07:18:46 51°13.324 2°51.378 9.6 22 11.9 101470 40
2010-05-31 07:18:52 51°13.329 2°51.38 9.8 278 11.9 101470 40
2010-05-31 07:18:56 51°13.332 2°51.381 9.2 24 11.9 101480 41
2010-05-31 07:19:02 51°13.337 2°51.384 9.3 284 11.9 101480 41
2010-05-31 07:19:07 51°13.342 2°51.387 10.4 25 11.9 101480 40
2010-05-31 07:19:11 51°13.345 2°51.389 11.4 284 11.9 101480 40
2010-05-31 07:19:16 51°13.35 2°51.392 9.6 27 11.9 101480 41
2010-05-31 07:19:21 51°13.355 2°51.395 9.5 283 11.9 101480 41
2010-05-31 07:19:27 51°13.361 2°51.399 9.9 24 11.9 101480 42
2010-05-31 07:19:31 51°13.365 2°51.402 10.1 278 11.9 101480 42
2010-05-31 07:19:36 51°13.371 2°51.405 11.1 20 11.9 101470 39
2010-05-31 07:19:42 51°13.378 2°51.408 9.4 283 11.9 101470 39
2010-05-31 07:19:47 51°13.384 2°51.411 9.1 22 11.9 101470 40
2010-05-31 07:19:51 51°13.389 2°51.413 9.2 281 11.9 101470 40
2010-05-31 07:19:56 51°13.396 2°51.416 11.2 28 11.9 101470 42
2010-05-31 07:20:02 51°13.405 2°51.419 11.5 280 11.9 101470 42
2010-05-31 07:20:06 51°13.411 2°51.421 11.5 26 11.9 101470 40
2010-05-31 07:20:12 51°13.421 2°51.423 11.7 280 11.9 101470 40
2010-05-31 07:20:16 51°13.427 2°51.425 11.9 25 11.9 101480 40
2010-05-31 07:20:22 51°13.437 2°51.427 11.9 283 11.9 101480 40
2010-05-31 07:20:27 51°13.446 2°51.428 9.5 21 11.9 101460 40
2010-05-31 07:20:32 51°13.453 2°51.429 13.1 284 11.9 101460 40
2010-05-31 07:20:36 51°13.459 2°51.429 9.8 26 11.9 101460 41
2010-05-31 07:20:41 51°13.465 2°51.429 9.4 281 11.9 101460 41
2010-05-31 07:20:47 51°13.471 2°51.429 8.5 317 11.9 101460 41
2010-05-31 07:20:52 51°13.476 2°51.43 8.9 281 11.9 101460 41
2010-05-31 07:20:56 51°13.479 2°51.429 8.4 21 11.9 101470 40
2010-05-31 07:21:02 51°13.482 2°51.43 7.8 282 11.9 101470 40
2010-05-31 07:21:07 51°13.485 2°51.431 9.3 24 12 101470 42
2010-05-31 07:21:12 51°13.488 2°51.431 8.8 279 12 101470 42
2010-05-31 07:21:16 51°13.489 2°51.432 7.2 25 12 101480 40
2010-05-31 07:21:21 51°13.491 2°51.434 7.7 285 12 101480 40
2010-05-31 07:21:27 51°13.492 2°51.435 8.4 24 12 101490 40
2010-05-31 07:21:31 51°13.492 2°51.435 7.7 282 12 101490 40
2010-05-31 07:21:37 51°13.493 2°51.436 8.3 22 12 101480 40
2010-05-31 07:21:42 51°13.493 2°51.437 10.8 281 12 101480 40
2010-05-31 07:21:47 51°13.494 2°51.438 10.2 251 12 101490 39
2010-05-31 07:21:51 51°13.494 2°51.439 11.1 285 12 101490 39
2010-05-31 07:21:56 51°13.494 2°51.441 10.5 250 12 101510 41
2010-05-31 07:22:02 51°13.494 2°51.442 10.4 280 12 101510 41
2010-05-31 07:22:06 51°13.494 2°51.443 9.7 253 12 101500 40
2010-05-31 07:22:11 51°13.494 2°51.445 8.8 285 12 101500 40
2010-05-31 07:22:16 51°13.494 2°51.446 8.3 250 12 101510 40
2010-05-31 07:22:22 51°13.494 2°51.447 9.6 285 12 101510 40
2010-05-31 07:22:27 51°13.493 2°51.449 9.3 252 12 101510 42
2010-05-31 07:22:31 51°13.493 2°51.449 8.3 284 12 101510 42
2010-05-31 07:22:36 51°13.492 2°51.45 9.2 249 12 101500 41
2010-05-31 07:22:41 51°13.492 2°51.451 9.2 285 12 101500 41
2010-05-31 07:22:47 51°13.492 2°51.451 8.7 248 12 101500 41
2010-05-31 07:22:52 51°13.491 2°51.452 10 285 12 101500 41
2010-05-31 07:22:56 51°13.491 2°51.452 8.7 22 12 101510 42
2010-05-31 07:23:01 51°13.49 2°51.453 9.2 280 12 101510 42
2010-05-31 07:23:07 51°13.49 2°51.453 9.3 24 12 101500 41
2010-05-31 07:23:12 51°13.489 2°51.454 8.8 283 12 101500 41
2010-05-31 07:23:16 51°13.489 2°51.454 8.2 23 12 101500 42
2010-05-31 07:23:22 51°13.488 2°51.454 9.7 281 12 101500 42
2010-05-31 07:23:26 51°13.487 2°51.454 8 22 12 101500 40
2010-05-31 07:23:31 51°13.487 2°51.454 9.1 281 12 101500 40
2010-05-31 07:23:36 51°13.486 2°51.454 8.2 251 12 101490 41
2010-05-31 07:23:42 51°13.485 2°51.454 8.9 280 12 101490 41
2010-05-31 07:23:46 51°13.485 2°51.454 9 248 11.9 101490 41
2010-05-31 07:23:52 51°13.484 2°51.454 7.1 285 11.9 101490 41
2010-05-31 07:23:56 51°13.483 2°51.453 7.3 24 12 101490 40
2010-05-31 07:24:02 51°13.482 2°51.453 8.3 284 12 101490 40
2010-05-31 07:24:06 51°13.481 2°51.453 8.8 248 12 101490 41
2010-05-31 07:24:12 51°13.48 2°51.453 8.2 284 12 101490 41
2010-05-31 07:24:16 51°13.479 2°51.453 8.3 19 11.9 101500 40
2010-05-31 07:24:21 51°13.479 2°51.453 8.2 281 11.9 101500 40
2010-05-31 07:24:27 51°13.477 2°51.452 9.6 21 12 101500 39
2010-05-31 07:24:32 51°13.476 2°51.452 8.4 284 12 101500 39
2010-05-31 07:24:36 51°13.475 2°51.451 9.4 24 12 101500 40
2010-05-31 07:24:41 51°13.475 2°51.45 9.2 285 12 101500 40
2010-05-31 07:24:47 51°13.473 2°51.45 8.2 248 12 101500 41
2010-05-31 07:24:52 51°13.472 2°51.45 7.4 -999 12 101500 41
2010-05-31 07:24:56 51°13.471 2°51.449 8.3 23 12 101500 41
2010-05-31 07:25:01 51°13.47 2°51.449 8.3 284 12 101500 41
2010-05-31 07:25:07 51°13.468 2°51.448 8.5 249 12 101500 40
2010-05-31 07:25:12 51°13.468 2°51.447 8.5 282 12 101500 40
2010-05-31 07:25:16 51°13.466 2°51.447 8.1 250 12 101500 41
2010-05-31 07:25:21 51°13.465 2°51.446 7.5 280 12 101500 41
2010-05-31 07:25:27 51°13.463 2°51.446 8.7 24 12 101500 42
2010-05-31 07:25:32 51°13.462 2°51.445 8.2 285 12 101500 42
2010-05-31 07:25:36 51°13.461 2°51.444 8.5 252 12 101500 41
2010-05-31 07:25:42 51°13.459 2°51.444 8 281 12 101500 41
2010-05-31 07:25:46 51°13.458 2°51.443 8.3 253 12 101510 41
2010-05-31 07:25:52 51°13.457 2°51.442 8.6 279 12 101510 41
2010-05-31 07:25:56 51°13.456 2°51.442 9 249 12 101500 42
2010-05-31 07:26:02 51°13.454 2°51.442 7.4 283 12 101500 42
2010-05-31 07:26:07 51°13.453 2°51.441 8.3 254 12 101510 40
2010-05-31 07:26:11 51°13.452 2°51.441 9.3 279 12 101510 40
2010-05-31 07:26:16 51°13.451 2°51.441 7.9 255 12 101510 40
2010-05-31 07:26:22 51°13.45 2°51.442 8.8 278 12 101510 40
2010-05-31 07:26:27 51°13.45 2°51.443 8 255 12 101510 41
2010-05-31 07:26:31 51°13.449 2°51.444 8 277 12 101510 41
2010-05-31 07:26:36 51°13.449 2°51.447 8.9 257 12 101500 41
2010-05-31 07:26:42 51°13.449 2°51.451 7.3 280 12 101500 41
2010-05-31 07:26:47 51°13.449 2°51.456 7.1 260 12 101520 41
2010-05-31 07:26:51 51°13.449 2°51.46 5.6 284 12 101520 41
2010-05-31 07:26:56 51°13.448 2°51.465 5 264 12.1 101510 41
2010-05-31 07:27:01 51°13.446 2°51.471 6.3 285 12.1 101510 41
2010-05-31 07:27:07 51°13.444 2°51.479 6.1 30 12.1 101510 40
2010-05-31 07:27:12 51°13.441 2°51.486 6.9 76 12.1 101510 40
2010-05-31 07:27:16 51°13.438 2°51.49 5.9 20 12.1 101520 42
2010-05-31 07:27:22 51°13.434 2°51.497 4.9 76 12.1 101520 42
2010-05-31 07:27:26 51°13.429 2°51.501 5.3 26 12 101520 40
2010-05-31 07:27:32 51°13.423 2°51.507 5.7 77 12 101520 40
2010-05-31 07:27:36 51°13.418 2°51.508 3.6 23 12 101530 39
2010-05-31 07:27:41 51°13.411 2°51.512 3.6 81 12 101530 39
2010-05-31 07:27:47 51°13.403 2°51.512 4.6 21 12 101540 40
2010-05-31 07:27:52 51°13.396 2°51.513 5.5 43 12 101540 40
2010-05-31 07:27:56 51°13.39 2°51.511 4.8 32 12.1 101530 40
2010-05-31 07:28:02 51°13.381 2°51.509 6.4 38 12.1 101530 40
2010-05-31 07:28:06 51°13.375 2°51.505 6.5 28 12.1 101520 40
2010-05-31 07:28:11 51°13.368 2°51.5 7.2 23 12.1 101520 40
2010-05-31 07:28:16 51°13.361 2°51.494 8.6 22 12.1 101510 43
2010-05-31 07:28:22 51°13.352 2°51.484 8.3 17 12.1 101510 43
2010-05-31 07:28:26 51°13.347 2°51.477 7.5 20 12.1 101510 40
2010-05-31 07:28:31 51°13.34 2°51.468 9.6 19 12.1 101510 40
2010-05-31 07:28:36 51°13.332 2°51.458 9.9 17 12.1 101500 40
2010-05-31 07:28:42 51°13.323 2°51.442 9.9 14 12.1 101500 40
2010-05-31 07:28:47 51°13.315 2°51.429 9.2 10 12.1 101500 42
2010-05-31 07:28:51 51°13.309 2°51.416 9.9 7 12.1 101500 42
2010-05-31 07:28:56 51°13.302 2°51.399 9 8 12.1 101500 42
2010-05-31 07:29:02 51°13.292 2°51.378 9.9 10 12.1 101500 42
2010-05-31 07:29:07 51°13.284 2°51.36 9 9 12 101500 41
2010-05-31 07:29:11 51°13.276 2°51.345 7.2 7 12 101500 41
2010-05-31 07:29:16 51°13.267 2°51.324 7.4 6 12 101500 41
2010-05-31 07:29:21 51°13.256 2°51.305 7.5 4 12 101500 41
2010-05-31 07:29:27 51°13.244 2°51.278 7.7 360 12 101490 42
2010-05-31 07:29:32 51°13.233 2°51.257 8.5 5 12 101490 42
2010-05-31 07:29:36 51°13.226 2°51.237 9.4 2 12 101500 42
2010-05-31 07:29:41 51°13.213 2°51.216 9.5 3 12 101500 42
2010-05-31 07:29:46 51°13.203 2°51.191 9 2 12 101490 40
2010-05-31 07:29:52 51°13.188 2°51.163 8.9 5 12 101490 40
2010-05-31 07:29:56 51°13.181 2°51.142 9.9 2 12.1 101500 41
2010-05-31 07:30:02 51°13.167 2°51.113 10.6 2 12.1 101500 41
2010-05-31 07:30:07 51°13.157 2°51.086 11.4 5 12 101490 42
2010-05-31 07:30:12 51°13.147 2°51.06 8.9 358 12 101490 42
2010-05-31 07:30:16 51°13.139 2°51.038 11.4 6 12 101490 39
2010-05-31 07:30:22 51°13.128 2°51.006 9.7 358 12 101490 39
2010-05-31 07:30:26 51°13.119 2°50.985 11.5 3 12 101490 40
2010-05-31 07:30:31 51°13.111 2°50.956 11.1 3 12 101490 40
2010-05-31 07:30:36 51°13.101 2°50.931 9.2 1 12 101490 41
2010-05-31 07:30:41 51°13.093 2°50.902 10.2 1 12 101490 41
2010-05-31 07:30:47 51°13.08 2°50.87 11.8 357 12 101490 41
2010-05-31 07:30:51 51°13.075 2°50.847 11.4 358 12 101490 41
2010-05-31 07:30:56 51°13.065 2°50.82 14.8 359 12 101490 41
2010-05-31 07:31:01 51°13.056 2°50.792 13.6 360 12 101490 41
2010-05-31 07:31:07 51°13.045 2°50.759 12.1 359 12 101490 41
2010-05-31 07:31:12 51°13.036 2°50.731 10.3 358 12 101490 41
2010-05-31 07:31:16 51°13.029 2°50.709 10.9 356 12 101490 41
2010-05-31 07:31:22 51°13.018 2°50.675 11.7 359 12 101490 41
2010-05-31 07:31:27 51°13.008 2°50.648 11.7 -999 11.9 101470 40
2010-05-31 07:31:31 51°13.002 2°50.625 11.5 359 11.9 101470 40
2010-05-31 07:31:36 51°12.992 2°50.597 12 360 11.9 101500 41
2010-05-31 07:31:41 51°12.984 2°50.569 9.9 359 11.9 101500 41
2010-05-31 07:31:47 51°12.973 2°50.535 9.5 355 11.9 101490 41
2010-05-31 07:31:52 51°12.964 2°50.507 10.6 357 11.9 101490 41
2010-05-31 07:31:56 51°12.956 2°50.485 13.6 358 11.9 101480 41
2010-05-31 07:32:02 51°12.945 2°50.453 10.8 354 11.9 101480 41
2010-05-31 07:32:07 51°12.937 2°50.423 11.4 360 11.9 101500 41
2010-05-31 07:32:11 51°12.931 2°50.4 10.9 356 11.9 101500 41
2010-05-31 07:32:16 51°12.922 2°50.373 13.6 358 11.9 101500 42
2010-05-31 07:32:21 51°12.914 2°50.344 10.8 358 11.9 101500 42
2010-05-31 07:32:26 51°12.905 2°50.316 11.3 359 12 101500 41
2010-05-31 07:32:31 51°12.897 2°50.288 10.3 358 12 101500 41
2010-05-31 07:32:36 51°12.887 2°50.259 10.4 3 12 101500 41
2010-05-31 07:32:41 51°12.879 2°50.23 11 355 12 101500 41
2010-05-31 07:32:46 51°12.869 2°50.202 12.1 357 12 101490 42
2010-05-31 07:32:51 51°12.86 2°50.174 13.2 358 12 101490 42
2010-05-31 07:32:56 51°12.851 2°50.145 13.1 358 12 101490 39
2010-05-31 07:33:01 51°12.842 2°50.116 13.4 357 12 101490 39
2010-05-31 07:33:07 51°12.829 2°50.083 12.3 357 12 101500 41
2010-05-31 07:33:11 51°12.822 2°50.06 13.1 358 12 101500 41
2010-05-31 07:33:16 51°12.812 2°50.033 11.4 358 12 101500 41
2010-05-31 07:33:22 51°12.801 2°49.999 12.5 358 12 101500 41
2010-05-31 07:33:27 51°12.792 2°49.971 12.3 359 12 101490 42
2010-05-31 07:33:31 51°12.784 2°49.949 10.6 358 12 101490 42
2010-05-31 07:33:36 51°12.775 2°49.92 12.6 1 12 101500 40
2010-05-31 07:33:41 51°12.765 2°49.893 10.7 2 12 101500 40
2010-05-31 07:33:47 51°12.754 2°49.858 11.4 358 12 101500 40
2010-05-31 07:33:52 51°12.744 2°49.831 10.8 -999 12 101500 40
2010-05-31 07:33:56 51°12.737 2°49.807 8.9 355 11.9 101500 40
2010-05-31 07:34:02 51°12.725 2°49.775 15.3 357 11.9 101500 40
2010-05-31 07:34:06 51°12.718 2°49.751 12.8 360 11.9 101490 40
2010-05-31 07:34:12 51°12.706 2°49.719 12.3 -999 11.9 101490 40
2010-05-31 07:34:16 51°12.699 2°49.695 10.8 358 11.9 101500 40
2010-05-31 07:34:21 51°12.69 2°49.667 11.8 3 11.9 101500 40
2010-05-31 07:34:27 51°12.679 2°49.634 12 359 12 101510 42
2010-05-31 07:34:32 51°12.669 2°49.606 10.7 1 12 101510 42
2010-05-31 07:34:36 51°12.663 2°49.582 9.5 354 12 101500 41
2010-05-31 07:34:42 51°12.651 2°49.55 11.6 358 12 101500 41
2010-05-31 07:34:46 51°12.644 2°49.527 11.9 358 11.9 101500 41
2010-05-31 07:34:51 51°12.635 2°49.499 11.1 357 11.9 101500 41
2010-05-31 07:34:56 51°12.626 2°49.47 14 357 11.9 101500 42
2010-05-31 07:35:01 51°12.615 2°49.444 15 359 11.9 101500 42
2010-05-31 07:35:06 51°12.607 2°49.415 10.5 360 11.9 101510 41
2010-05-31 07:35:11 51°12.597 2°49.388 12.7 358 11.9 101510 41
2010-05-31 07:35:16 51°12.587 2°49.358 11.2 2 11.9 101500 41
2010-05-31 07:35:21 51°12.578 2°49.331 10.9 2 11.9 101500 41
2010-05-31 07:35:27 51°12.567 2°49.298 11 1 11.9 101500 40
2010-05-31 07:35:31 51°12.56 2°49.275 10.8 -999 11.9 101500 40
2010-05-31 07:35:36 51°12.552 2°49.246 10.2 355 11.9 101510 40
2010-05-31 07:35:42 51°12.539 2°49.214 13.3 354 11.9 101510 40
2010-05-31 07:35:47 51°12.531 2°49.185 11.9 357 11.9 101500 40
2010-05-31 07:35:51 51°12.524 2°49.163 12.6 359 11.9 101500 40
2010-05-31 07:35:56 51°12.515 2°49.136 13.4 359 11.9 101500 40
2010-05-31 07:36:01 51°12.505 2°49.107 10.3 357 11.9 101500 40
2010-05-31 07:36:07 51°12.494 2°49.073 13.1 2 12 101500 41
2010-05-31 07:36:11 51°12.488 2°49.052 10.3 357 12 101500 41
2010-05-31 07:36:16 51°12.477 2°49.026 10.5 357 11.9 101510 42
2010-05-31 07:36:21 51°12.469 2°48.997 10.1 357 11.9 101510 42
2010-05-31 07:36:27 51°12.457 2°48.964 11.3 356 11.9 101510 40
2010-05-31 07:36:32 51°12.448 2°48.937 11.4 356 11.9 101510 40
2010-05-31 07:36:36 51°12.44 2°48.914 13.2 360 12 101510 42
2010-05-31 07:36:42 51°12.429 2°48.882 10.4 358 12 101510 42
2010-05-31 07:36:46 51°12.42 2°48.86 12.5 360 11.9 101510 42
2010-05-31 07:36:52 51°12.41 2°48.826 11.9 358 11.9 101510 42
2010-05-31 07:36:56 51°12.402 2°48.804 13.5 358 11.9 101510 41
2010-05-31 07:37:01 51°12.393 2°48.777 12.2 2 11.9 101510 41
2010-05-31 07:37:07 51°12.382 2°48.743 12.2 357 12 101510 42
2010-05-31 07:37:11 51°12.373 2°48.722 15.3 360 12 101510 42
2010-05-31 07:37:16 51°12.365 2°48.693 11.5 359 12 101500 40
2010-05-31 07:37:22 51°12.353 2°48.661 15.1 358 12 101500 40
2010-05-31 07:37:27 51°12.344 2°48.632 13.6 358 11.9 101490 41
2010-05-31 07:37:31 51°12.336 2°48.61 13.3 2 11.9 101490 41
2010-05-31 07:37:36 51°12.327 2°48.582 12.9 359 11.9 101490 41
2010-05-31 07:37:42 51°12.317 2°48.548 12.4 1 11.9 101490 41
2010-05-31 07:37:47 51°12.307 2°48.521 11.3 355 11.9 101500 41
2010-05-31 07:37:51 51°12.299 2°48.499 13.3 359 11.9 101500 41
2010-05-31 07:37:56 51°12.291 2°48.47 11.3 359 11.9 101490 41
2010-05-31 07:38:02 51°12.278 2°48.437 11.6 357 11.9 101490 41
2010-05-31 07:38:07 51°12.271 2°48.408 9.4 1 11.9 101500 41
2010-05-31 07:38:11 51°12.261 2°48.387 11.1 360 11.9 101500 41
2010-05-31 07:38:16 51°12.254 2°48.358 9.9 358 11.9 101510 40
2010-05-31 07:38:21 51°12.244 2°48.331 10.3 358 11.9 101510 40
2010-05-31 07:38:27 51°12.233 2°48.297 12 355 11.9 101510 40
2010-05-31 07:38:31 51°12.226 2°48.274 13 359 11.9 101510 40
2010-05-31 07:38:36 51°12.217 2°48.247 12.5 358 11.9 101520 40
2010-05-31 07:38:41 51°12.207 2°48.219 12.6 359 11.9 101520 40
2010-05-31 07:38:47 51°12.196 2°48.185 12.3 359 11.9 101510 42
2010-05-31 07:38:51 51°12.189 2°48.163 12.8 360 11.9 101510 42
2010-05-31 07:38:56 51°12.18 2°48.135 10.1 1 11.9 101520 41
2010-05-31 07:39:01 51°12.171 2°48.106 12.6 -999 11.9 101520 41
2010-05-31 07:39:07 51°12.16 2°48.073 12.1 1 11.9 101490 41
2010-05-31 07:39:12 51°12.151 2°48.045 10.1 359 11.9 101490 41
2010-05-31 07:39:16 51°12.142 2°48.023 11.2 357 11.9 101500 40
2010-05-31 07:39:22 51°12.133 2°47.988 11.7 358 11.9 101500 40
2010-05-31 07:39:27 51°12.122 2°47.961 11 2 11.9 101500 41
2010-05-31 07:39:31 51°12.117 2°47.937 10 358 11.9 101500 41
2010-05-31 07:39:37 51°12.104 2°47.905 12.6 -999 11.9 101520 41
2010-05-31 07:39:42 51°12.095 2°47.877 13 360 11.9 101520 41
2010-05-31 07:39:47 51°12.085 2°47.849 12.1 1 11.9 101500 41
2010-05-31 07:39:51 51°12.079 2°47.826 10.4 356 11.9 101500 41
2010-05-31 07:39:56 51°12.069 2°47.799 11.7 358 11.9 101520 41
2010-05-31 07:40:02 51°12.058 2°47.764 10.6 2 11.9 101520 41
2010-05-31 07:40:07 51°12.049 2°47.736 10 355 11.9 101510 42
2010-05-31 07:40:11 51°12.041 2°47.714 11.4 359 11.9 101510 42
2010-05-31 07:40:16 51°12.033 2°47.685 12.4 358 11.9 101520 41
2010-05-31 07:40:22 51°12.02 2°47.653 13.2 358 11.9 101520 41
2010-05-31 07:40:27 51°12.012 2°47.623 12.6 -999 12 101500 42
2010-05-31 07:40:31 51°12.004 2°47.602 12.6 359 12 101500 42
2010-05-31 07:40:36 51°11.995 2°47.573 11.7 360 12 101510 41
2010-05-31 07:40:41 51°11.987 2°47.544 11.4 357 12 101510 41
2010-05-31 07:40:47 51°11.976 2°47.51 11.8 357 12 101510 41
2010-05-31 07:40:51 51°11.969 2°47.487 10.6 354 12 101510 41
2010-05-31 07:40:56 51°11.958 2°47.46 13.2 1 12 101510 40
2010-05-31 07:41:01 51°11.952 2°47.43 11 356 12 101510 40
2010-05-31 07:41:06 51°11.94 2°47.403 12.1 358 12 101520 42
2010-05-31 07:41:11 51°11.932 2°47.374 11.2 -999 12 101520 42
2010-05-31 07:41:16 51°11.922 2°47.347 12.1 1 12 101520 41
2010-05-31 07:41:21 51°11.913 2°47.318 10.1 2 12 101520 41
2010-05-31 07:41:26 51°11.904 2°47.29 11 1 11.9 101510 40
2010-05-31 07:41:32 51°11.894 2°47.255 11.2 359 11.9 101510 40
2010-05-31 07:41:36 51°11.886 2°47.233 10.4 359 12 101520 42
2010-05-31 07:41:41 51°11.878 2°47.205 12.3 358 12 101520 42
2010-05-31 07:41:47 51°11.865 2°47.172 12.3 2 12 101500 40
2010-05-31 07:41:52 51°11.857 2°47.143 12.9 -999 12 101500 40
2010-05-31 07:41:56 51°11.849 2°47.121 10.3 1 12 101510 42
2010-05-31 07:42:02 51°11.838 2°47.087 10.5 357 12 101510 42
2010-05-31 07:42:07 51°11.829 2°47.058 9.1 360 12 101520 42
2010-05-31 07:42:11 51°11.821 2°47.037 10.9 357 12 101520 42
2010-05-31 07:42:16 51°11.812 2°47.008 11.9 358 12 101520 40
2010-05-31 07:42:22 51°11.8 2°46.974 12.1 357 12 101520 40
2010-05-31 07:42:27 51°11.791 2°46.946 11.2 358 12 101530 41
2010-05-31 07:42:32 51°11.781 2°46.918 12 1 12 101530 41
2010-05-31 07:42:36 51°11.774 2°46.895 11.6 2 12 101520 41
2010-05-31 07:42:42 51°11.763 2°46.861 13.5 358 12 101520 41
2010-05-31 07:42:47 51°11.754 2°46.832 12 2 12 101520 40
2010-05-31 07:42:51 51°11.747 2°46.809 10.7 358 12 101520 40
2010-05-31 07:42:56 51°11.737 2°46.782 13.8 357 12 101510 41
2010-05-31 07:43:01 51°11.73 2°46.751 12.2 356 12 101510 41
2010-05-31 07:43:06 51°11.718 2°46.725 12.9 -999 11.9 101510 41
2010-05-31 07:43:11 51°11.711 2°46.695 10.8 357 11.9 101510 41
2010-05-31 07:43:16 51°11.7 2°46.669 14.6 360 12 101520 41
2010-05-31 07:43:21 51°11.692 2°46.639 11.8 358 12 101520 41
2010-05-31 07:43:26 51°11.682 2°46.612 12.8 357 12 101520 41
2010-05-31 07:43:31 51°11.673 2°46.584 12.7 360 12 101520 41
2010-05-31 07:43:36 51°11.664 2°46.556 12.2 359 12 101520 40
2010-05-31 07:43:41 51°11.655 2°46.527 13.1 356 12 101520 40
2010-05-31 07:43:46 51°11.647 2°46.499 12.8 1 12 101510 40
2010-05-31 07:43:51 51°11.637 2°46.471 14.5 357 12 101510 40
2010-05-31 07:43:56 51°11.628 2°46.444 12.2 359 12 101510 41
2010-05-31 07:44:01 51°11.618 2°46.416 12.9 358 12 101510 41
2010-05-31 07:44:07 51°11.608 2°46.381 14.2 1 12 101520 41
2010-05-31 07:44:12 51°11.598 2°46.353 10.8 358 12 101520 41
2010-05-31 07:44:16 51°11.591 2°46.331 11.9 356 12 101530 40
2010-05-31 07:44:22 51°11.58 2°46.298 12.3 358 12 101530 40
2010-05-31 07:44:27 51°11.571 2°46.269 11.2 356 11.9 101520 40
2010-05-31 07:44:31 51°11.563 2°46.247 13.2 359 11.9 101520 40
2010-05-31 07:44:36 51°11.555 2°46.218 12.5 356 12 101520 42
2010-05-31 07:44:42 51°11.543 2°46.185 13.6 1 12 101520 42
2010-05-31 07:44:47 51°11.534 2°46.157 11.7 360 12 101510 42
2010-05-31 07:44:52 51°11.525 2°46.129 13.5 360 12 101510 42
2010-05-31 07:44:56 51°11.518 2°46.107 12.4 357 12 101530 41
2010-05-31 07:45:02 51°11.506 2°46.073 14.2 359 12 101530 41
2010-05-31 07:45:07 51°11.498 2°46.044 12.6 358 11.9 101510 40
2010-05-31 07:45:11 51°11.49 2°46.022 12.4 -999 11.9 101510 40
2010-05-31 07:45:16 51°11.481 2°45.993 11.4 358 11.9 101520 41
2010-05-31 07:45:21 51°11.471 2°45.966 11.3 358 11.9 101520 41
2010-05-31 07:45:26 51°11.462 2°45.937 12.2 360 11.9 101530 41
2010-05-31 07:45:31 51°11.454 2°45.909 11.1 357 11.9 101530 41
2010-05-31 07:45:36 51°11.443 2°45.882 15.1 -999 11.9 101530 41
2010-05-31 07:45:41 51°11.436 2°45.852 10.9 355 11.9 101530 41
2010-05-31 07:45:46 51°11.424 2°45.825 14.7 359 11.9 101530 40
2010-05-31 07:45:52 51°11.414 2°45.791 12.5 -999 11.9 101530 40
2010-05-31 07:45:56 51°11.406 2°45.768 11.4 356 11.9 101530 41
2010-05-31 07:46:01 51°11.398 2°45.74 12.8 358 11.9 101530 41
2010-05-31 07:46:06 51°11.387 2°45.712 12.5 359 11.9 101530 42
2010-05-31 07:46:11 51°11.379 2°45.683 13.4 358 11.9 101530 42
2010-05-31 07:46:16 51°11.369 2°45.656 13.2 358 12 101530 39
2010-05-31 07:46:21 51°11.36 2°45.626 14.1 359 12 101530 39
2010-05-31 07:46:26 51°11.35 2°45.599 12.5 1 11.9 101540 41
2010-05-31 07:46:31 51°11.342 2°45.57 13.8 359 11.9 101540 41
2010-05-31 07:46:36 51°11.332 2°45.543 14.9 -999 11.9 101520 41
2010-05-31 07:46:41 51°11.323 2°45.513 13.4 358 11.9 101520 41
2010-05-31 07:46:47 51°11.311 2°45.48 12.1 360 11.9 101520 41
2010-05-31 07:46:51 51°11.304 2°45.458 10.3 -999 11.9 101520 41
2010-05-31 07:46:56 51°11.295 2°45.429 11.8 355 11.9 101520 40
2010-05-31 07:47:02 51°11.283 2°45.395 14.6 358 11.9 101520 40
2010-05-31 07:47:07 51°11.275 2°45.366 9.9 355 11.9 101530 40
2010-05-31 07:47:11 51°11.265 2°45.347 11.5 359 11.9 101530 40
2010-05-31 07:47:16 51°11.257 2°45.316 11.8 359 11.9 101540 42
2010-05-31 07:47:21 51°11.249 2°45.288 9.7 359 11.9 101540 42
2010-05-31 07:47:27 51°11.237 2°45.255 13.9 356 11.9 101540 40
2010-05-31 07:47:32 51°11.23 2°45.225 11.9 356 11.9 101540 40
2010-05-31 07:47:36 51°11.222 2°45.204 13.3 357 11.9 101530 41
2010-05-31 07:47:42 51°11.212 2°45.17 11.5 357 11.9 101530 41
2010-05-31 07:47:47 51°11.202 2°45.142 13.2 358 11.9 101540 40
2010-05-31 07:47:52 51°11.193 2°45.113 12 360 11.9 101540 40
2010-05-31 07:47:56 51°11.188 2°45.091 10.7 359 11.9 101530 41
2010-05-31 07:48:01 51°11.177 2°45.064 12.7 -999 11.9 101530 41
2010-05-31 07:48:07 51°11.168 2°45.03 13.2 357 11.9 101530 41
2010-05-31 07:48:12 51°11.158 2°45.003 11.4 359 11.9 101530 41
2010-05-31 07:48:16 51°11.151 2°44.98 12.8 358 11.9 101520 41
2010-05-31 07:48:22 51°11.14 2°44.947 11.2 360 11.9 101520 41
2010-05-31 07:48:26 51°11.133 2°44.925 13.8 360 11.9 101550 42
2010-05-31 07:48:31 51°11.124 2°44.897 12.9 359 11.9 101550 42
2010-05-31 07:48:36 51°11.115 2°44.869 11 356 11.9 101540 42
2010-05-31 07:48:41 51°11.106 2°44.841 12.3 358 11.9 101540 42
2010-05-31 07:48:47 51°11.095 2°44.808 12.2 357 11.9 101530 41
2010-05-31 07:48:51 51°11.088 2°44.785 14.7 358 11.9 101530 41
2010-05-31 07:48:56 51°11.078 2°44.758 14.9 359 11.9 101530 40
2010-05-31 07:49:01 51°11.069 2°44.729 14.3 358 11.9 101530 40
2010-05-31 07:49:07 51°11.058 2°44.696 12.6 359 11.9 101540 40
2010-05-31 07:49:11 51°11.051 2°44.674 12 356 11.9 101540 40
2010-05-31 07:49:16 51°11.042 2°44.646 12.3 357 11.9 101530 41
2010-05-31 07:49:22 51°11.03 2°44.612 13.6 -999 11.9 101530 41
2010-05-31 07:49:27 51°11.021 2°44.585 12.4 356 11.9 101540 42
2010-05-31 07:49:31 51°11.013 2°44.563 13.1 359 11.9 101540 42
2010-05-31 07:49:36 51°11.005 2°44.535 13.1 358 11.9 101530 40
2010-05-31 07:49:41 51°10.996 2°44.508 13.8 355 11.9 101530 40
2010-05-31 07:49:47 51°10.985 2°44.474 12.9 355 11.9 101530 41
2010-05-31 07:49:51 51°10.978 2°44.451 13.6 353 11.9 101530 41
2010-05-31 07:49:56 51°10.968 2°44.424 12.8 359 11.9 101540 42
2010-05-31 07:50:01 51°10.959 2°44.396 11.8 356 11.9 101540 42
2010-05-31 07:50:07 51°10.948 2°44.362 13.3 358 11.9 101530 41
2010-05-31 07:50:12 51°10.94 2°44.335 11.9 356 11.9 101530 41
2010-05-31 07:50:16 51°10.931 2°44.314 14.3 358 11.9 101550 41
2010-05-31 07:50:22 51°10.922 2°44.279 13.7 356 11.9 101550 41
2010-05-31 07:50:27 51°10.911 2°44.251 14.2 358 11.9 101540 41
2010-05-31 07:50:32 51°10.903 2°44.223 13.2 354 11.9 101540 41
2010-05-31 07:50:36 51°10.895 2°44.201 15.2 359 11.9 101540 40
2010-05-31 07:50:41 51°10.887 2°44.172 14.2 356 11.9 101540 40
2010-05-31 07:50:47 51°10.875 2°44.139 12.6 360 11.9 101540 41
2010-05-31 07:50:51 51°10.87 2°44.117 13.2 358 11.9 101540 41
2010-05-31 07:50:56 51°10.859 2°44.091 13.7 358 11.9 101530 41
2010-05-31 07:51:02 51°10.849 2°44.056 12.9 358 11.9 101530 41
2010-05-31 07:51:07 51°10.839 2°44.028 12.9 358 11.9 101520 41
2010-05-31 07:51:11 51°10.833 2°44.005 13.3 355 11.9 101520 41
2010-05-31 07:51:16 51°10.823 2°43.978 15.4 357 11.9 101550 41
2010-05-31 07:51:22 51°10.814 2°43.945 13.1 354 11.9 101550 41
2010-05-31 07:51:27 51°10.804 2°43.917 12.6 355 11.9 101530 41
2010-05-31 07:51:31 51°10.796 2°43.895 13.9 1 11.9 101530 41
2010-05-31 07:51:36 51°10.788 2°43.866 14.2 359 11.9 101540 40
2010-05-31 07:51:41 51°10.779 2°43.839 12.1 1 11.9 101540 40
2010-05-31 07:51:47 51°10.768 2°43.806 15.2 -999 11.9 101540 42
2010-05-31 07:51:51 51°10.761 2°43.783 14.8 359 11.9 101540 42
2010-05-31 07:51:56 51°10.751 2°43.756 12.6 360 11.9 101540 41
2010-05-31 07:52:01 51°10.743 2°43.728 13.1 -999 11.9 101540 41
2010-05-31 07:52:07 51°10.731 2°43.695 13.8 1 11.9 101540 41
2010-05-31 07:52:11 51°10.724 2°43.673 12.6 359 11.9 101540 41
2010-05-31 07:52:16 51°10.716 2°43.646 14 359 11.9 101530 41
2010-05-31 07:52:21 51°10.707 2°43.618 13.4 360 11.9 101530 41
2010-05-31 07:52:26 51°10.698 2°43.589 11.9 360 11.9 101530 41
2010-05-31 07:52:31 51°10.688 2°43.562 12.1 358 11.9 101530 41
2010-05-31 07:52:36 51°10.68 2°43.533 13.3 359 11.9 101540 41
2010-05-31 07:52:41 51°10.671 2°43.507 12.6 358 11.9 101540 41
2010-05-31 07:52:47 51°10.66 2°43.473 12.5 -999 11.9 101530 40
2010-05-31 07:52:52 51°10.651 2°43.445 11.8 354 11.9 101530 40
2010-05-31 07:52:56 51°10.643 2°43.423 12.3 1 11.9 101540 41
2010-05-31 07:53:02 51°10.634 2°43.389 11 359 11.9 101540 41
2010-05-31 07:53:07 51°10.624 2°43.363 11.3 1 11.9 101530 41
2010-05-31 07:53:11 51°10.616 2°43.341 8.5 1 11.9 101530 41
2010-05-31 07:53:16 51°10.603 2°43.32 7.1 7 11.9 101550 42
2010-05-31 07:53:22 51°10.588 2°43.295 9.4 9 11.9 101550 42
2010-05-31 07:53:27 51°10.574 2°43.277 9 14 11.9 101540 40
2010-05-31 07:53:31 51°10.562 2°43.265 7.9 20 11.9 101540 40
2010-05-31 07:53:36 51°10.548 2°43.253 4.9 16 11.9 101540 42
2010-05-31 07:53:40 51°10.536 2°43.25 7.6 23 11.9 101540 42
2010-05-31 07:53:47 51°10.514 2°43.239 5.1 32 12 101540 40
2010-05-31 07:53:51 51°10.502 2°43.238 6.2 30 12 101540 40
2010-05-31 07:53:56 51°10.487 2°43.234 5.7 29 11.9 101560 41
2010-05-31 07:54:01 51°10.472 2°43.234 5.8 32 11.9 101560 41
2010-05-31 07:54:07 51°10.455 2°43.232 4.1 34 11.9 101570 43
2010-05-31 07:54:11 51°10.444 2°43.235 4.2 37 11.9 101570 43
2010-05-31 07:54:16 51°10.43 2°43.235 4.7 38 11.9 101570 40
2010-05-31 07:54:21 51°10.417 2°43.235 7.3 26 11.9 101570 40
2010-05-31 07:54:26 51°10.404 2°43.233 7.1 27 11.9 101570 41
2010-05-31 07:54:32 51°10.39 2°43.223 8.9 25 11.9 101570 41
2010-05-31 07:54:36 51°10.38 2°43.218 10.6 22 12 101580 41
2010-05-31 07:54:42 51°10.369 2°43.204 8.7 23 12 101580 41
2010-05-31 07:54:46 51°10.361 2°43.195 8.8 19 11.9 101570 40
2010-05-31 07:54:52 51°10.351 2°43.179 8.3 -999 11.9 101570 40
2010-05-31 07:54:56 51°10.344 2°43.17 10.1 11 11.9 101560 42
2010-05-31 07:55:01 51°10.336 2°43.155 11.1 9 11.9 101560 42
2010-05-31 07:55:06 51°10.33 2°43.14 10.5 8 11.9 101560 42
2010-05-31 07:55:11 51°10.324 2°43.124 7.5 6 11.9 101560 42
2010-05-31 07:55:16 51°10.321 2°43.108 10.4 359 11.9 101560 40
2010-05-31 07:55:21 51°10.317 2°43.092 13 358 11.9 101560 40
2010-05-31 07:55:27 51°10.315 2°43.073 13.5 356 12 101550 40
2010-05-31 07:55:31 51°10.316 2°43.061 12.8 353 12 101550 40
2010-05-31 07:55:36 51°10.316 2°43.046 11.3 348 11.9 101550 41
2010-05-31 07:55:41 51°10.317 2°43.031 12.3 347 11.9 101550 41
2010-05-31 07:55:47 51°10.319 2°43.014 11.3 341 11.9 101540 40
2010-05-31 07:55:51 51°10.322 2°43.004 11.2 285 11.9 101540 40
2010-05-31 07:55:56 51°10.325 2°42.993 9.5 334 11.9 101530 42
2010-05-31 07:56:02 51°10.331 2°42.98 10 285 11.9 101530 42
2010-05-31 07:56:07 51°10.335 2°42.971 11.4 329 11.9 101560 41
2010-05-31 07:56:11 51°10.34 2°42.964 10.9 283 11.9 101560 41
2010-05-31 07:56:16 51°10.345 2°42.958 9.4 324 11.9 101550 42
2010-05-31 07:56:21 51°10.349 2°42.952 10.2 282 11.9 101550 42
2010-05-31 07:56:27 51°10.354 2°42.946 10 322 11.9 101560 42
2010-05-31 07:56:32 51°10.357 2°42.942 9.6 282 11.9 101560 42
2010-05-31 07:56:36 51°10.359 2°42.939 9.9 316 11.9 101560 40
2010-05-31 07:56:42 51°10.362 2°42.936 9.8 282 11.9 101560 40
2010-05-31 07:56:47 51°10.363 2°42.934 8.8 34 11.9 101550 40
2010-05-31 07:56:52 51°10.365 2°42.932 10.8 281 11.9 101550 40
2010-05-31 07:56:56 51°10.366 2°42.931 9.5 21 11.9 101550 39
2010-05-31 07:57:01 51°10.366 2°42.93 10.2 282 11.9 101550 39
2010-05-31 07:57:07 51°10.367 2°42.928 9.9 32 11.9 101540 41
2010-05-31 07:57:11 51°10.367 2°42.928 9.5 278 11.9 101540 41
2010-05-31 07:57:16 51°10.367 2°42.927 9.8 28 11.9 101550 41
2010-05-31 07:57:22 51°10.367 2°42.926 8.4 285 11.9 101550 41
2010-05-31 07:57:26 51°10.366 2°42.926 9.6 23 11.9 101540 40
2010-05-31 07:57:31 51°10.366 2°42.925 9.7 281 11.9 101540 40
2010-05-31 07:57:36 51°10.366 2°42.924 9.2 246 11.9 101550 40
2010-05-31 07:57:41 51°10.366 2°42.923 8.3 286 11.9 101550 40
2010-05-31 07:57:47 51°10.365 2°42.923 9.1 22 11.9 101550 42
2010-05-31 07:57:51 51°10.365 2°42.923 9.9 279 11.9 101550 42
2010-05-31 07:57:56 51°10.364 2°42.922 9.2 251 11.9 101550 42
2010-05-31 07:58:02 51°10.364 2°42.921 8.6 284 11.9 101550 42
2010-05-31 07:58:07 51°10.363 2°42.92 8.4 245 11.9 101560 42
2010-05-31 07:58:11 51°10.362 2°42.92 8.3 284 11.9 101560 42
2010-05-31 07:58:16 51°10.362 2°42.919 7.8 20 11.9 101550 41
2010-05-31 07:58:22 51°10.361 2°42.918 6.4 279 11.9 101550 41
2010-05-31 07:58:27 51°10.36 2°42.918 8.5 251 11.9 101560 41
2010-05-31 07:58:31 51°10.36 2°42.917 9.1 284 11.9 101560 41
2010-05-31 07:58:36 51°10.359 2°42.916 8.3 254 11.9 101560 40
2010-05-31 07:58:41 51°10.358 2°42.915 8.2 285 11.9 101560 40
2010-05-31 07:58:46 51°10.357 2°42.914 9.6 21 12 101570 40
2010-05-31 07:58:51 51°10.356 2°42.913 9.5 283 12 101570 40
2010-05-31 07:58:56 51°10.355 2°42.911 8.9 250 12 101570 42
2010-05-31 07:59:01 51°10.354 2°42.911 10.8 278 12 101570 42
2010-05-31 07:59:06 51°10.352 2°42.91 9.4 251 11.9 101560 40
2010-05-31 07:59:11 51°10.351 2°42.909 10.1 282 11.9 101560 40
2010-05-31 07:59:16 51°10.35 2°42.908 9.1 249 12 101560 40
2010-05-31 07:59:21 51°10.349 2°42.907 10 285 12 101560 40
2010-05-31 07:59:26 51°10.348 2°42.905 9.8 248 12 101560 41
2010-05-31 07:59:31 51°10.346 2°42.904 10.9 280 12 101560 41
2010-05-31 07:59:36 51°10.344 2°42.903 9.7 253 11.9 101550 41
2010-05-31 07:59:41 51°10.343 2°42.902 10 284 11.9 101550 41
2010-05-31 07:59:47 51°10.342 2°42.9 9.3 18 12 101570 41
2010-05-31 07:59:52 51°10.341 2°42.899 10.8 283 12 101570 41
2010-05-31 07:59:56 51°10.34 2°42.898 8.8 252 11.9 101570 40
2010-05-31 08:00:02 51°10.338 2°42.896 9.1 285 11.9 101570 40
2010-05-31 08:00:07 51°10.336 2°42.896 9 252 11.9 101560 42
2010-05-31 08:00:11 51°10.335 2°42.894 9.4 283 11.9 101560 42
2010-05-31 08:00:16 51°10.333 2°42.893 7.6 250 11.9 101570 41
2010-05-31 08:00:22 51°10.332 2°42.89 8.5 284 11.9 101570 41
2010-05-31 08:00:27 51°10.33 2°42.89 10.2 256 11.9 101570 40
2010-05-31 08:00:32 51°10.329 2°42.887 9.3 283 11.9 101570 40
2010-05-31 08:00:36 51°10.327 2°42.887 10.7 259 11.9 101570 40
2010-05-31 08:00:42 51°10.326 2°42.884 8 283 11.9 101570 40
2010-05-31 08:00:47 51°10.323 2°42.883 9.5 255 11.9 101590 41
2010-05-31 08:00:51 51°10.323 2°42.881 8.3 279 11.9 101590 41
2010-05-31 08:00:56 51°10.32 2°42.88 10 257 12 101590 41
2010-05-31 08:01:01 51°10.32 2°42.878 9.6 283 12 101590 41
2010-05-31 08:01:07 51°10.318 2°42.875 8.4 253 12 101590 42
2010-05-31 08:01:12 51°10.316 2°42.874 10 284 12 101590 42
2010-05-31 08:01:16 51°10.314 2°42.872 7.2 258 12 101590 42
2010-05-31 08:01:22 51°10.313 2°42.87 9.2 281 12 101590 42
2010-05-31 08:01:26 51°10.311 2°42.869 8.6 258 11.9 101580 40
2010-05-31 08:01:31 51°10.309 2°42.867 11.1 280 11.9 101580 40
2010-05-31 08:01:36 51°10.307 2°42.865 10.9 260 11.9 101590 42
2010-05-31 08:01:41 51°10.305 2°42.863 7 284 11.9 101590 42
2010-05-31 08:01:46 51°10.303 2°42.862 5 265 11.9 101580 40
2010-05-31 08:01:51 51°10.301 2°42.86 5.9 286 11.9 101580 40
2010-05-31 08:01:56 51°10.299 2°42.858 7.9 261 11.9 101590 42
2010-05-31 08:02:01 51°10.297 2°42.856 8.1 278 11.9 101590 42
2010-05-31 08:02:07 51°10.295 2°42.854 6 265 11.9 101590 40
2010-05-31 08:02:12 51°10.293 2°42.852 5.6 284 11.9 101590 40
2010-05-31 08:02:16 51°10.292 2°42.851 7 261 11.9 101600 41
2010-05-31 08:02:22 51°10.29 2°42.848 5.9 284 11.9 101600 41
2010-05-31 08:02:27 51°10.289 2°42.846 4.9 264 11.8 101590 42
2010-05-31 08:02:31 51°10.287 2°42.845 4.8 278 11.8 101590 42
2010-05-31 08:02:36 51°10.285 2°42.842 6.4 263 11.8 101600 40
2010-05-31 08:02:42 51°10.283 2°42.84 7.1 284 11.8 101600 40
2010-05-31 08:02:47 51°10.281 2°42.838 7 263 11.9 101610 42
2010-05-31 08:02:52 51°10.28 2°42.836 8 280 11.9 101610 42
2010-05-31 08:02:56 51°10.278 2°42.834 6.1 266 11.9 101590 40
2010-05-31 08:03:01 51°10.277 2°42.832 6.1 282 11.9 101590 40
2010-05-31 08:03:07 51°10.274 2°42.831 6.1 262 11.9 101590 42
2010-05-31 08:03:11 51°10.273 2°42.831 5.2 280 11.9 101590 42
2010-05-31 08:03:16 51°10.272 2°42.83 7 264 11.9 101610 43
2010-05-31 08:03:22 51°10.27 2°42.83 5.8 286 11.9 101610 43
2010-05-31 08:03:27 51°10.269 2°42.831 7.4 269 11.9 101590 40
2010-05-31 08:03:31 51°10.269 2°42.832 6 278 11.9 101590 40
2010-05-31 08:03:36 51°10.268 2°42.834 5.7 264 11.9 101600 42
2010-05-31 08:03:41 51°10.267 2°42.837 6 280 11.9 101600 42
2010-05-31 08:03:47 51°10.267 2°42.84 6.1 262 11.9 101590 41
2010-05-31 08:03:52 51°10.267 2°42.844 9.4 280 11.9 101590 41
2010-05-31 08:03:56 51°10.268 2°42.849 10 257 11.9 101590 42
2010-05-31 08:04:02 51°10.269 2°42.855 9.2 278 11.9 101590 42
2010-05-31 08:04:07 51°10.271 2°42.86 9.2 254 11.8 101590 41
2010-05-31 08:04:11 51°10.272 2°42.866 9.9 279 11.8 101590 41
2010-05-31 08:04:17 51°10.276 2°42.873 7.9 250 11.8 101590 40
2010-05-31 08:04:22 51°10.279 2°42.882 8.9 284 11.8 101590 40
2010-05-31 08:04:26 51°10.283 2°42.887 9.6 26 11.9 101580 41
2010-05-31 08:04:31 51°10.287 2°42.896 9.6 278 11.9 101580 41
2010-05-31 08:04:36 51°10.292 2°42.904 10.2 23 11.8 101570 40
2010-05-31 08:04:42 51°10.298 2°42.916 9.2 282 11.8 101570 40
2010-05-31 08:04:47 51°10.304 2°42.927 9.8 23 11.9 101560 42
2010-05-31 08:04:51 51°10.309 2°42.937 10.4 285 11.9 101560 42
2010-05-31 08:04:56 51°10.315 2°42.949 10.8 22 11.9 101550 39
2010-05-31 08:05:02 51°10.323 2°42.965 10.9 282 11.9 101550 39
2010-05-31 08:05:07 51°10.33 2°42.978 9.2 248 11.9 101560 41
2010-05-31 08:05:12 51°10.337 2°42.993 9.8 283 11.9 101560 41
2010-05-31 08:05:16 51°10.343 2°43.005 10 21 11.9 101540 41
2010-05-31 08:05:22 51°10.353 2°43.023 10.9 278 11.9 101540 41
2010-05-31 08:05:27 51°10.361 2°43.039 8.9 29 11.9 101560 42
2010-05-31 08:05:31 51°10.367 2°43.052 12.1 283 11.9 101560 42
2010-05-31 08:05:36 51°10.376 2°43.068 12.7 22 11.9 101560 42
2010-05-31 08:05:41 51°10.384 2°43.086 10.8 279 11.9 101560 42
2010-05-31 08:05:46 51°10.393 2°43.103 11.1 25 11.9 101540 40
2010-05-31 08:05:52 51°10.403 2°43.124 11.1 284 11.9 101540 40
2010-05-31 08:05:56 51°10.41 2°43.139 10.5 27 11.9 101550 41
2010-05-31 08:06:01 51°10.418 2°43.158 10.9 283 11.9 101550 41
2010-05-31 08:06:06 51°10.429 2°43.175 10.1 22 11.9 101540 42
2010-05-31 08:06:11 51°10.438 2°43.194 11.5 283 11.9 101540 42
2010-05-31 08:06:16 51°10.447 2°43.213 9 23 11.9 101550 41
2010-05-31 08:06:21 51°10.457 2°43.232 10.9 282 11.9 101550 41
2010-05-31 08:06:26 51°10.466 2°43.252 10.6 24 11.8 101550 40
2010-05-31 08:06:31 51°10.476 2°43.27 9.9 283 11.8 101550 40
2010-05-31 08:06:36 51°10.485 2°43.29 11.7 25 11.8 101550 41
2010-05-31 08:06:42 51°10.496 2°43.314 10.6 287 11.8 101550 41
2010-05-31 08:06:47 51°10.506 2°43.333 9.6 24 11.8 101550 42
2010-05-31 08:06:51 51°10.513 2°43.35 11.3 282 11.8 101550 42
2010-05-31 08:06:56 51°10.523 2°43.369 11.4 21 11.9 101540 41
2010-05-31 08:07:02 51°10.533 2°43.394 11.5 283 11.9 101540 41
2010-05-31 08:07:07 51°10.543 2°43.413 11.8 20 11.8 101540 42
2010-05-31 08:07:11 51°10.551 2°43.428 9.6 282 11.8 101540 42
2010-05-31 08:07:16 51°10.559 2°43.45 10 24 11.8 101540 40
2010-05-31 08:07:22 51°10.57 2°43.475 10 281 11.8 101540 40
2010-05-31 08:07:27 51°10.578 2°43.495 11.1 20 11.9 101530 42
2010-05-31 08:07:31 51°10.586 2°43.511 9.1 278 11.9 101530 42
2010-05-31 08:07:36 51°10.593 2°43.534 10.7 20 11.9 101560 39
2010-05-31 08:07:41 51°10.604 2°43.553 10.8 286 11.9 101560 39
2010-05-31 08:07:47 51°10.613 2°43.58 12 22 11.9 101540 41
2010-05-31 08:07:51 51°10.621 2°43.596 9.8 279 11.9 101540 41
2010-05-31 08:07:56 51°10.629 2°43.618 9.8 22 11.9 101570 41
2010-05-31 08:08:01 51°10.637 2°43.64 10.2 282 11.9 101570 41
2010-05-31 08:08:07 51°10.648 2°43.665 10.4 243 11.9 101560 41
2010-05-31 08:08:12 51°10.656 2°43.687 10.4 278 11.9 101560 41
2010-05-31 08:08:16 51°10.663 2°43.704 8.3 23 11.9 101570 42
2010-05-31 08:08:22 51°10.672 2°43.731 9.9 279 11.9 101570 42
2010-05-31 08:08:27 51°10.681 2°43.753 10.9 241 11.9 101540 41
2010-05-31 08:08:31 51°10.688 2°43.77 10.6 283 11.9 101540 41
2010-05-31 08:08:36 51°10.695 2°43.793 12 23 11.9 101550 41
2010-05-31 08:08:42 51°10.706 2°43.818 13.2 278 11.9 101550 41
2010-05-31 08:08:47 51°10.714 2°43.841 11.6 26 11.9 101550 40
2010-05-31 08:08:51 51°10.722 2°43.858 11.6 283 11.9 101550 40
2010-05-31 08:08:56 51°10.73 2°43.88 11.9 19 11.9 101550 42
2010-05-31 08:09:02 51°10.74 2°43.907 11.8 282 11.9 101550 42
2010-05-31 08:09:06 51°10.748 2°43.924 10.7 23 11.9 101540 42
2010-05-31 08:09:11 51°10.756 2°43.947 12.9 285 11.9 101540 42
2010-05-31 08:09:16 51°10.765 2°43.968 10.1 241 11.9 101560 42
2010-05-31 08:09:22 51°10.775 2°43.996 10.4 279 11.9 101560 42
2010-05-31 08:09:27 51°10.783 2°44.018 11.4 21 11.9 101540 40
2010-05-31 08:09:32 51°10.792 2°44.04 10.1 283 11.9 101540 40
2010-05-31 08:09:36 51°10.798 2°44.058 10.8 23 11.9 101540 41
2010-05-31 08:09:42 51°10.809 2°44.085 12.5 283 11.9 101540 41
2010-05-31 08:09:47 51°10.818 2°44.107 11.1 23 11.9 101550 41
2010-05-31 08:09:51 51°10.824 2°44.126 13 279 11.9 101550 41
2010-05-31 08:09:56 51°10.834 2°44.147 10.7 20 11.9 101570 41
2010-05-31 08:10:01 51°10.842 2°44.17 11.4 280 11.9 101570 41
2010-05-31 08:10:06 51°10.852 2°44.191 9.5 24 11.9 101550 41
2010-05-31 08:10:11 51°10.86 2°44.213 8.9 278 11.9 101550 41
2010-05-31 08:10:16 51°10.868 2°44.236 10.6 26 11.9 101540 40
2010-05-31 08:10:21 51°10.877 2°44.259 11 283 11.9 101540 40
2010-05-31 08:10:27 51°10.887 2°44.286 11.4 238 11.8 101520 40
2010-05-31 08:10:32 51°10.894 2°44.31 11.9 280 11.8 101520 40
2010-05-31 08:10:36 51°10.902 2°44.327 10.8 26 11.9 101560 42
2010-05-31 08:10:42 51°10.91 2°44.356 12.8 279 11.9 101560 42
2010-05-31 08:10:47 51°10.921 2°44.377 11.9 21 11.8 101530 41
2010-05-31 08:10:51 51°10.926 2°44.397 12.1 285 11.8 101530 41
2010-05-31 08:10:56 51°10.934 2°44.418 10.7 244 11.8 101530 40
2010-05-31 08:11:01 51°10.942 2°44.442 9.3 283 11.8 101530 40
2010-05-31 08:11:07 51°10.952 2°44.469 10.6 244 11.8 101530 41
2010-05-31 08:11:11 51°10.959 2°44.487 9 283 11.8 101530 41
2010-05-31 08:11:16 51°10.965 2°44.511 12.9 22 11.8 101550 41
2010-05-31 08:11:21 51°10.974 2°44.534 10 278 11.8 101550 41
2010-05-31 08:11:27 51°10.983 2°44.562 10.4 248 11.8 101560 40
2010-05-31 08:11:31 51°10.99 2°44.58 9.5 282 11.8 101560 40
2010-05-31 08:11:36 51°10.996 2°44.604 10.2 23 11.9 101570 41
2010-05-31 08:11:42 51°11.007 2°44.632 10 278 11.9 101570 41
2010-05-31 08:11:47 51°11.013 2°44.656 10.7 245 11.9 101540 40
2010-05-31 08:11:52 51°11.022 2°44.679 8.4 282 11.9 101540 40
2010-05-31 08:11:56 51°11.027 2°44.698 12.1 26 11.9 101560 40
2010-05-31 08:12:02 51°11.038 2°44.724 10.2 280 11.9 101560 40
2010-05-31 08:12:06 51°11.044 2°44.743 9.5 24 11.9 101560 40
2010-05-31 08:12:11 51°11.051 2°44.768 12.3 287 11.9 101560 40
2010-05-31 08:12:16 51°11.06 2°44.79 10.9 20 11.9 101570 42
2010-05-31 08:12:21 51°11.065 2°44.815 13.2 278 11.9 101570 42
2010-05-31 08:12:26 51°11.076 2°44.836 9.6 22 11.9 101570 42
2010-05-31 08:12:31 51°11.082 2°44.86 12.7 282 11.9 101570 42
2010-05-31 08:12:36 51°11.091 2°44.883 10 25 11.9 101530 41
2010-05-31 08:12:41 51°11.099 2°44.906 10.8 283 11.9 101530 41
2010-05-31 08:12:47 51°11.109 2°44.933 12.8 242 11.9 101520 41
2010-05-31 08:12:51 51°11.116 2°44.951 10.5 -999 11.9 101520 41
2010-05-31 08:12:56 51°11.124 2°44.974 11.4 21 11.9 101540 40
2010-05-31 08:13:02 51°11.134 2°45.001 10.9 278 11.9 101540 40
2010-05-31 08:13:06 51°11.141 2°45.019 11 24 11.9 101540 40
2010-05-31 08:13:11 51°11.15 2°45.043 10.4 281 11.9 101540 40
2010-05-31 08:13:16 51°11.159 2°45.064 10.5 26 11.9 101540 41
2010-05-31 08:13:22 51°11.169 2°45.091 11.7 286 11.9 101540 41
2010-05-31 08:13:27 51°11.177 2°45.115 11.4 24 11.9 101540 40
2010-05-31 08:13:31 51°11.184 2°45.132 12.1 283 11.9 101540 40
2010-05-31 08:13:36 51°11.194 2°45.154 10.4 20 11.9 101550 41
2010-05-31 08:13:41 51°11.201 2°45.178 11.9 280 11.9 101550 41
2010-05-31 08:13:47 51°11.212 2°45.205 12.5 24 11.9 101530 42
2010-05-31 08:13:51 51°11.218 2°45.223 11.9 -999 11.9 101530 42
2010-05-31 08:13:56 51°11.226 2°45.246 13.1 24 11.9 101540 42
2010-05-31 08:14:01 51°11.236 2°45.268 11.2 278 11.9 101540 42
2010-05-31 08:14:07 51°11.245 2°45.295 9.9 23 11.9 101540 41
2010-05-31 08:14:12 51°11.254 2°45.318 10.3 277 11.9 101540 41
2010-05-31 08:14:16 51°11.261 2°45.336 9.8 21 11.9 101540 41
2010-05-31 08:14:22 51°11.271 2°45.363 12.8 278 11.9 101540 41